This is the latest recevied weather packets stored in our database for station/object KI7MOQ. If no packets are shown the sender has not sent any weather packets the latest 10 day(s).
| Time | Temp. | Humidity | Pressure | Rain* | Wind** | Luminosity | Snow |
|---|---|---|---|---|---|---|---|
| 1778268251 | 15.56° C | 58% | 1024.6 hPa | 0 mm | - | 152 W/m² | - |
| 1778267948 | 15° C | 57% | 1024.6 hPa | 0 mm | - | 107 W/m² | - |
| 1778267646 | 16.11° C | 54% | 1024.6 hPa | 0 mm | - | 103 W/m² | - |
| 1778267342 | 15.56° C | 57% | 1024.7 hPa | 0 mm | - | 675 W/m² | - |
| 1778267039 | 15° C | 59% | 1024.9 hPa | 0 mm | - | 149 W/m² | - |
| 1778266734 | 15° C | 59% | 1024.7 hPa | 0 mm | - | 100 W/m² | - |
| 1778266433 | 15° C | 60% | 1024.6 hPa | 0 mm | - | 164 W/m² | - |
| 1778266130 | 14.44° C | 60% | 1024.6 hPa | 0 mm | - | 422 W/m² | - |
| 1778265827 | 13.89° C | 62% | 1024.6 hPa | 0 mm | - | 137 W/m² | - |
| 1778265523 | 13.89° C | 63% | 1024.7 hPa | 0 mm | - | 82 W/m² | - |
| 1778265220 | 13.89° C | 64% | 1024.6 hPa | 0 mm | - | 95 W/m² | - |
| 1778264916 | 13.89° C | 63% | 1024.6 hPa | 0 mm | - | 150 W/m² | - |
| 1778264613 | 13.89° C | 64% | 1024.7 hPa | 0 mm | - | 118 W/m² | - |
| 1778264308 | 13.89° C | 64% | 1024.4 hPa | 0 mm | - | 117 W/m² | - |
| 1778264005 | 13.89° C | 64% | 1024.5 hPa | 0 mm | - | 128 W/m² | - |
| 1778263703 | 13.33° C | 64% | 1024.5 hPa | 0 mm | - | 96 W/m² | - |
| 1778263399 | 13.33° C | 67% | 1024.4 hPa | 0 mm | - | 119 W/m² | - |
| 1778263095 | 13.89° C | 67% | 1024.5 hPa | 0 mm | - | 177 W/m² | - |
| 1778262793 | 13.33° C | 69% | 1024.5 hPa | 0 mm | - | 151 W/m² | - |
| 1778262491 | 13.33° C | 70% | 1024.4 hPa | 0 mm | - | 106 W/m² | - |
| 1778262188 | 12.78° C | 70% | 1024.5 hPa | 0 mm | - | 97 W/m² | - |
| 1778261884 | 12.78° C | 71% | 1024.4 hPa | 0 mm | - | 91 W/m² | - |
| 1778261582 | 12.22° C | 72% | 1024.2 hPa | 0 mm | - | 81 W/m² | - |
| 1778261277 | 12.22° C | 73% | 1024 hPa | 0 mm | - | 32 W/m² | - |
| 1778260975 | 12.22° C | 73% | 1024.2 hPa | 0 mm | - | 82 W/m² | - |
* Rain latest hour (hover to see other rain measurements)
** Current wind speed in m/s (hover to see current wind gust speed)